Year,Month,Day,Hour,Minute,Value (Times are PST for temperature in C)
2016,05,23,00,00,13.30
2016,05,23,00,01,13.30
2016,05,23,00,02,13.30
2016,05,23,00,03,13.30
2016,05,23,00,04,13.30
2016,05,23,00,05,13.30
2016,05,23,00,06,13.30
2016,05,23,00,07,13.30
2016,05,23,00,08,13.30
2016,05,23,00,09,13.30
2016,05,23,00,10,13.30
2016,05,23,00,11,13.20
2016,05,23,00,12,13.20
2016,05,23,00,13,13.20
2016,05,23,00,14,13.20
2016,05,23,00,15,13.20
2016,05,23,00,16,13.20
2016,05,23,00,17,13.10
2016,05,23,00,18,13.10
2016,05,23,00,19,13.10
2016,05,23,00,20,13.10
2016,05,23,00,21,13.10
2016,05,23,00,22,13.10
2016,05,23,00,23,13.10
2016,05,23,00,24,13.10
2016,05,23,00,25,13.10
2016,05,23,00,26,13.00
2016,05,23,00,27,13.00
2016,05,23,00,28,13.00
2016,05,23,00,29,13.00
2016,05,23,00,30,13.00
2016,05,23,00,31,13.00
2016,05,23,00,32,12.90
2016,05,23,00,33,12.90
2016,05,23,00,34,12.90
2016,05,23,00,35,12.90
2016,05,23,00,36,12.90
2016,05,23,00,37,12.90
2016,05,23,00,38,12.90
2016,05,23,00,39,12.90
2016,05,23,00,40,12.80
2016,05,23,00,41,12.80
2016,05,23,00,42,12.80
2016,05,23,00,43,12.80
2016,05,23,00,44,12.80
2016,05,23,00,45,12.80
2016,05,23,00,46,12.80
2016,05,23,00,47,12.80
2016,05,23,00,48,12.80
2016,05,23,00,49,12.80
2016,05,23,00,50,12.80
2016,05,23,00,51,12.80
2016,05,23,00,52,12.80
2016,05,23,00,53,12.80
2016,05,23,00,54,12.80
2016,05,23,00,55,12.90
2016,05,23,00,56,12.80
2016,05,23,00,57,12.90
2016,05,23,00,58,12.90
2016,05,23,00,59,12.90
2016,05,23,01,00,12.90
2016,05,23,01,01,12.90
2016,05,23,01,02,12.80
2016,05,23,01,03,12.80
2016,05,23,01,04,12.80
2016,05,23,01,05,12.80
2016,05,23,01,06,12.80
2016,05,23,01,07,12.90
2016,05,23,01,08,12.90
2016,05,23,01,09,12.90
2016,05,23,01,10,12.90
2016,05,23,01,11,12.90
2016,05,23,01,12,12.90
2016,05,23,01,13,12.90
2016,05,23,01,14,12.90
2016,05,23,01,15,12.90
2016,05,23,01,16,12.80
2016,05,23,01,17,12.80
2016,05,23,01,18,12.80
2016,05,23,01,19,12.80
2016,05,23,01,20,12.80
2016,05,23,01,21,12.80
2016,05,23,01,22,12.70
2016,05,23,01,23,12.70
2016,05,23,01,24,12.70
2016,05,23,01,25,12.70
2016,05,23,01,26,12.70
2016,05,23,01,27,12.70
2016,05,23,01,28,12.70
2016,05,23,01,29,12.70
2016,05,23,01,30,12.60
2016,05,23,01,31,12.60
2016,05,23,01,32,12.60
2016,05,23,01,33,12.60
2016,05,23,01,34,12.60
2016,05,23,01,35,12.60
2016,05,23,01,36,12.50
2016,05,23,01,37,12.50
2016,05,23,01,38,12.50
2016,05,23,01,39,12.50
2016,05,23,01,40,12.50
2016,05,23,01,41,12.40
2016,05,23,01,42,12.40
2016,05,23,01,43,12.40
2016,05,23,01,44,12.40
2016,05,23,01,45,12.40
2016,05,23,01,46,12.30
2016,05,23,01,47,12.30
2016,05,23,01,48,12.30
2016,05,23,01,49,12.30
2016,05,23,01,50,12.30
2016,05,23,01,51,12.30
2016,05,23,01,52,12.30
2016,05,23,01,53,12.20
2016,05,23,01,54,12.20
2016,05,23,01,55,12.20
2016,05,23,01,56,12.20
2016,05,23,01,57,12.20
2016,05,23,01,58,12.20
2016,05,23,01,59,12.20
2016,05,23,02,00,12.10
2016,05,23,02,01,12.10
2016,05,23,02,02,12.10
2016,05,23,02,03,12.10
2016,05,23,02,04,12.10
2016,05,23,02,05,12.10
2016,05,23,02,06,12.10
2016,05,23,02,07,12.10
2016,05,23,02,08,12.10
2016,05,23,02,09,12.10
2016,05,23,02,10,12.10
2016,05,23,02,11,12.10
2016,05,23,02,12,12.10
2016,05,23,02,13,12.10
2016,05,23,02,14,12.10
2016,05,23,02,15,12.20
2016,05,23,02,16,12.20
2016,05,23,02,17,12.20
2016,05,23,02,18,12.20
2016,05,23,02,19,12.20
2016,05,23,02,20,12.20
2016,05,23,02,21,12.20
2016,05,23,02,22,12.20
2016,05,23,02,23,12.20
2016,05,23,02,24,12.20
2016,05,23,02,25,12.20
2016,05,23,02,26,12.20
2016,05,23,02,27,12.20
2016,05,23,02,28,12.20
2016,05,23,02,29,12.20
2016,05,23,02,30,12.20
2016,05,23,02,31,12.20
2016,05,23,02,32,12.20
2016,05,23,02,33,12.20
2016,05,23,02,34,12.20
2016,05,23,02,35,12.20
2016,05,23,02,36,12.20
2016,05,23,02,37,12.20
2016,05,23,02,38,12.20
2016,05,23,02,39,12.10
2016,05,23,02,40,12.10
2016,05,23,02,41,12.10
2016,05,23,02,42,12.10
2016,05,23,02,43,12.10
2016,05,23,02,44,12.10
2016,05,23,02,45,12.10
2016,05,23,02,46,12.00
2016,05,23,02,47,12.00
2016,05,23,02,48,12.00
2016,05,23,02,49,11.90
2016,05,23,02,50,11.90
2016,05,23,02,51,11.90
2016,05,23,02,52,11.90
2016,05,23,02,53,11.90
2016,05,23,02,54,11.90
2016,05,23,02,55,11.90
2016,05,23,02,56,11.90
2016,05,23,02,57,11.90
2016,05,23,02,58,11.90
2016,05,23,02,59,11.90
2016,05,23,03,00,11.90
2016,05,23,03,01,11.90
2016,05,23,03,02,11.90
2016,05,23,03,03,11.90
2016,05,23,03,04,11.90
2016,05,23,03,05,11.90
2016,05,23,03,06,11.90
2016,05,23,03,07,11.90
2016,05,23,03,08,11.90
2016,05,23,03,09,11.80
2016,05,23,03,10,11.80
2016,05,23,03,11,11.80
2016,05,23,03,12,11.80
2016,05,23,03,13,11.80
2016,05,23,03,14,11.80
2016,05,23,03,15,11.70
2016,05,23,03,16,11.70
2016,05,23,03,17,11.70
2016,05,23,03,18,11.70
2016,05,23,03,19,11.60
2016,05,23,03,20,11.60
2016,05,23,03,21,11.60
2016,05,23,03,22,11.60
2016,05,23,03,23,11.50
2016,05,23,03,24,11.50
2016,05,23,03,25,11.40
2016,05,23,03,26,11.40
2016,05,23,03,27,11.40
2016,05,23,03,28,11.40
2016,05,23,03,29,11.30
2016,05,23,03,30,11.30
2016,05,23,03,31,11.30
2016,05,23,03,32,11.30
2016,05,23,03,33,11.30
2016,05,23,03,34,11.20
2016,05,23,03,35,11.20
2016,05,23,03,36,11.20
2016,05,23,03,37,11.20
2016,05,23,03,38,11.20
2016,05,23,03,39,11.20
2016,05,23,03,40,11.10
2016,05,23,03,41,11.10
2016,05,23,03,42,11.10
2016,05,23,03,43,11.10
2016,05,23,03,44,11.10
2016,05,23,03,45,11.10
2016,05,23,03,46,11.10
2016,05,23,03,47,11.00
2016,05,23,03,48,11.00
2016,05,23,03,49,11.00
2016,05,23,03,50,11.00
2016,05,23,03,51,10.90
2016,05,23,03,52,10.90
2016,05,23,03,53,10.90
2016,05,23,03,54,10.90
2016,05,23,03,55,10.90
2016,05,23,03,56,10.80
2016,05,23,03,57,10.80
2016,05,23,03,58,10.80
2016,05,23,03,59,10.80
2016,05,23,04,00,10.80
2016,05,23,04,01,10.80
2016,05,23,04,02,10.80
2016,05,23,04,03,10.80
2016,05,23,04,04,10.80
2016,05,23,04,05,10.80
2016,05,23,04,06,10.70
2016,05,23,04,07,10.80
2016,05,23,04,08,10.80
2016,05,23,04,09,10.80
2016,05,23,04,10,10.80
2016,05,23,04,11,10.80
2016,05,23,04,12,10.70
2016,05,23,04,13,10.80
2016,05,23,04,14,10.80
2016,05,23,04,15,10.80
2016,05,23,04,16,10.80
2016,05,23,04,17,10.70
2016,05,23,04,18,10.80
2016,05,23,04,19,10.70
2016,05,23,04,20,10.70
2016,05,23,04,21,10.70
2016,05,23,04,22,10.70
2016,05,23,04,23,10.70
2016,05,23,04,24,10.70
2016,05,23,04,25,10.70
2016,05,23,04,26,10.70
2016,05,23,04,27,10.70
2016,05,23,04,28,10.70
2016,05,23,04,29,10.70
2016,05,23,04,30,10.70
2016,05,23,04,31,10.70
2016,05,23,04,32,10.70
2016,05,23,04,33,10.70
2016,05,23,04,34,10.70
2016,05,23,04,35,10.60
2016,05,23,04,36,10.60
2016,05,23,04,37,10.60
2016,05,23,04,38,10.60
2016,05,23,04,39,10.60
2016,05,23,04,40,10.60
2016,05,23,04,41,10.60
2016,05,23,04,42,10.60
2016,05,23,04,43,10.60
2016,05,23,04,44,10.60
2016,05,23,04,45,10.60
2016,05,23,04,46,10.60
2016,05,23,04,47,10.60
2016,05,23,04,48,10.60
2016,05,23,04,49,10.60
2016,05,23,04,50,10.60
2016,05,23,04,51,10.60
2016,05,23,04,52,10.60
2016,05,23,04,53,10.60
2016,05,23,04,54,10.50
2016,05,23,04,55,10.50
2016,05,23,04,56,10.50
2016,05,23,04,57,10.50
2016,05,23,04,58,10.50
2016,05,23,04,59,10.50
2016,05,23,05,00,10.50
2016,05,23,05,01,10.50
2016,05,23,05,02,10.50
2016,05,23,05,03,10.50
2016,05,23,05,04,10.50
2016,05,23,05,05,10.50
2016,05,23,05,06,10.50
2016,05,23,05,07,10.50
2016,05,23,05,08,10.50
2016,05,23,05,09,10.50
2016,05,23,05,10,10.50
2016,05,23,05,11,10.50
2016,05,23,05,12,10.50
2016,05,23,05,13,10.50
2016,05,23,05,14,10.50
2016,05,23,05,15,10.50
2016,05,23,05,16,10.50
2016,05,23,05,17,10.50
2016,05,23,05,18,10.50
2016,05,23,05,19,10.50
2016,05,23,05,20,10.60
2016,05,23,05,21,10.60
2016,05,23,05,22,10.60
2016,05,23,05,23,10.60
2016,05,23,05,24,10.60
2016,05,23,05,25,10.60
2016,05,23,05,26,10.60
2016,05,23,05,27,10.60
2016,05,23,05,28,10.60
2016,05,23,05,29,10.60
2016,05,23,05,30,10.60
2016,05,23,05,31,10.60
2016,05,23,05,32,10.60
2016,05,23,05,33,10.60
2016,05,23,05,34,10.70
2016,05,23,05,35,10.70
2016,05,23,05,36,10.70
2016,05,23,05,37,10.70
2016,05,23,05,38,10.70
2016,05,23,05,39,10.70
2016,05,23,05,40,10.70
2016,05,23,05,41,10.70
2016,05,23,05,42,10.70
2016,05,23,05,43,10.70
2016,05,23,05,44,10.80
2016,05,23,05,45,10.80
2016,05,23,05,46,10.80
2016,05,23,05,47,10.80
2016,05,23,05,48,10.80
2016,05,23,05,49,10.80
2016,05,23,05,50,10.80
2016,05,23,05,51,10.80
2016,05,23,05,52,10.90
2016,05,23,05,53,10.90
2016,05,23,05,54,10.90
2016,05,23,05,55,10.90
2016,05,23,05,56,11.00
2016,05,23,05,57,11.00
2016,05,23,05,58,11.00
2016,05,23,05,59,11.10
2016,05,23,06,00,11.10
2016,05,23,06,01,11.10
2016,05,23,06,02,11.10
2016,05,23,06,03,11.20
2016,05,23,06,04,11.20
2016,05,23,06,05,11.20
2016,05,23,06,06,11.20
2016,05,23,06,07,11.20
2016,05,23,06,08,11.20
2016,05,23,06,09,11.20
2016,05,23,06,10,11.30
2016,05,23,06,11,11.30
2016,05,23,06,12,11.30
2016,05,23,06,13,11.30
2016,05,23,06,14,11.30
2016,05,23,06,15,11.40
2016,05,23,06,16,11.40
2016,05,23,06,17,11.40
2016,05,23,06,18,11.40
2016,05,23,06,19,11.40
2016,05,23,06,20,11.50
2016,05,23,06,21,11.50
2016,05,23,06,22,11.50
2016,05,23,06,23,11.60
2016,05,23,06,24,11.60
2016,05,23,06,25,11.60
2016,05,23,06,26,11.60
2016,05,23,06,27,11.70
2016,05,23,06,28,11.70
2016,05,23,06,29,11.70
2016,05,23,06,30,11.70
2016,05,23,06,31,11.70
2016,05,23,06,32,11.70
2016,05,23,06,33,11.80
2016,05,23,06,34,11.80
2016,05,23,06,35,11.80
2016,05,23,06,36,11.80
2016,05,23,06,37,11.80
2016,05,23,06,38,11.80
2016,05,23,06,39,11.80
2016,05,23,06,40,11.80
2016,05,23,06,41,11.90
2016,05,23,06,42,11.90
2016,05,23,06,43,11.90
2016,05,23,06,44,11.90
2016,05,23,06,45,11.90
2016,05,23,06,46,11.90
2016,05,23,06,47,11.90
2016,05,23,06,48,12.00
2016,05,23,06,49,12.00
2016,05,23,06,50,12.00
2016,05,23,06,51,12.00
2016,05,23,06,52,12.00
2016,05,23,06,53,12.00
2016,05,23,06,54,12.10
2016,05,23,06,55,12.10
2016,05,23,06,56,12.10
2016,05,23,06,57,12.10
2016,05,23,06,58,12.10
2016,05,23,06,59,12.10
2016,05,23,07,00,12.10
2016,05,23,07,01,12.10
2016,05,23,07,02,12.10
2016,05,23,07,03,12.10
2016,05,23,07,04,12.10
2016,05,23,07,05,12.20
2016,05,23,07,06,12.20
2016,05,23,07,07,12.20
2016,05,23,07,08,12.20
2016,05,23,07,09,12.20
2016,05,23,07,10,12.30
2016,05,23,07,11,12.30
2016,05,23,07,12,12.30
2016,05,23,07,13,12.30
2016,05,23,07,14,12.30
2016,05,23,07,15,12.30
2016,05,23,07,16,12.30
2016,05,23,07,17,12.30
2016,05,23,07,18,12.30
2016,05,23,07,19,12.40
2016,05,23,07,20,12.40
2016,05,23,07,21,12.40
2016,05,23,07,22,12.40
2016,05,23,07,23,12.40
2016,05,23,07,24,12.40
2016,05,23,07,25,12.40
2016,05,23,07,26,12.50
2016,05,23,07,27,12.50
2016,05,23,07,28,12.50
2016,05,23,07,29,12.60
2016,05,23,07,30,12.60
2016,05,23,07,31,12.60
2016,05,23,07,32,12.60
2016,05,23,07,33,12.60
2016,05,23,07,34,12.60
2016,05,23,07,35,12.70
2016,05,23,07,36,12.70
2016,05,23,07,37,12.70
2016,05,23,07,38,12.70
2016,05,23,07,39,12.70
2016,05,23,07,40,12.80
2016,05,23,07,41,12.80
2016,05,23,07,42,12.80
2016,05,23,07,43,12.80
2016,05,23,07,44,12.80
2016,05,23,07,45,12.80
2016,05,23,07,46,12.80
2016,05,23,07,47,12.90
2016,05,23,07,48,12.90
2016,05,23,07,49,12.90
2016,05,23,07,50,12.90
2016,05,23,07,51,12.90
2016,05,23,07,52,12.90
2016,05,23,07,53,13.00
2016,05,23,07,54,13.00
2016,05,23,07,55,13.00
2016,05,23,07,56,13.00
2016,05,23,07,57,13.00
2016,05,23,07,58,13.00
2016,05,23,07,59,13.00
2016,05,23,08,00,13.10
2016,05,23,08,01,13.10
2016,05,23,08,02,13.10
2016,05,23,08,03,13.10
2016,05,23,08,04,13.10
2016,05,23,08,05,13.10
2016,05,23,08,06,13.10
2016,05,23,08,07,13.10
2016,05,23,08,08,13.10
2016,05,23,08,09,13.10
2016,05,23,08,10,13.10
2016,05,23,08,11,13.10
2016,05,23,08,12,13.10
2016,05,23,08,13,13.20
2016,05,23,08,14,13.20
2016,05,23,08,15,13.20
2016,05,23,08,16,13.20
2016,05,23,08,17,13.20
2016,05,23,08,18,13.20
2016,05,23,08,19,13.20
2016,05,23,08,20,13.20
2016,05,23,08,21,13.20
2016,05,23,08,22,13.20
2016,05,23,08,23,13.20
2016,05,23,08,24,13.20
2016,05,23,08,25,13.20
2016,05,23,08,26,13.30
2016,05,23,08,27,13.30
2016,05,23,08,28,13.30
2016,05,23,08,29,13.30
2016,05,23,08,30,13.30
2016,05,23,08,31,13.30
2016,05,23,08,32,13.30
2016,05,23,08,33,13.30
2016,05,23,08,34,13.40
2016,05,23,08,35,13.40
2016,05,23,08,36,13.40
2016,05,23,08,37,13.40
2016,05,23,08,38,13.40
2016,05,23,08,39,13.40
2016,05,23,08,40,13.50
2016,05,23,08,41,13.50
2016,05,23,08,42,13.50
2016,05,23,08,43,13.50
2016,05,23,08,44,13.50
2016,05,23,08,45,13.60
2016,05,23,08,46,13.60
2016,05,23,08,47,13.60
2016,05,23,08,48,13.60
2016,05,23,08,49,13.60
2016,05,23,08,50,13.60
2016,05,23,08,51,13.60
2016,05,23,08,52,13.60
2016,05,23,08,53,13.70
2016,05,23,08,54,13.70
2016,05,23,08,55,13.70
2016,05,23,08,56,13.70
2016,05,23,08,57,13.70
2016,05,23,08,58,13.80
2016,05,23,08,59,13.80
2016,05,23,09,00,13.80
2016,05,23,09,01,13.80
2016,05,23,09,02,13.80
2016,05,23,09,03,13.80
2016,05,23,09,04,13.80
2016,05,23,09,05,13.80
2016,05,23,09,06,13.80
2016,05,23,09,07,13.80
2016,05,23,09,08,13.80
2016,05,23,09,09,13.80
2016,05,23,09,10,13.80
2016,05,23,09,11,13.80
2016,05,23,09,12,13.80
2016,05,23,09,13,13.70
2016,05,23,09,14,13.70
2016,05,23,09,15,13.70
2016,05,23,09,16,13.70
2016,05,23,09,17,13.70
2016,05,23,09,18,13.70
2016,05,23,09,19,13.70
2016,05,23,09,20,13.70
2016,05,23,09,21,13.70
2016,05,23,09,22,13.70
2016,05,23,09,23,13.70
2016,05,23,09,24,13.70
2016,05,23,09,25,13.70
2016,05,23,09,26,13.70
2016,05,23,09,27,13.70
2016,05,23,09,28,13.70
2016,05,23,09,29,13.70
2016,05,23,09,30,13.70
2016,05,23,09,31,13.70
2016,05,23,09,32,13.70
2016,05,23,09,33,13.70
2016,05,23,09,34,13.80
2016,05,23,09,35,13.80
2016,05,23,09,36,13.80
2016,05,23,09,37,13.80
2016,05,23,09,38,13.80
2016,05,23,09,39,13.80
2016,05,23,09,40,13.80
2016,05,23,09,41,13.80
2016,05,23,09,42,13.80
2016,05,23,09,43,13.80
2016,05,23,09,44,13.80
2016,05,23,09,45,13.80
2016,05,23,09,46,13.80
2016,05,23,09,47,13.80
2016,05,23,09,48,13.80
2016,05,23,09,49,13.80
2016,05,23,09,50,13.80
2016,05,23,09,51,13.80
2016,05,23,09,52,13.80
2016,05,23,09,53,13.80
2016,05,23,09,54,13.80
2016,05,23,09,55,13.80
2016,05,23,09,56,13.90
2016,05,23,09,57,13.90
2016,05,23,09,58,13.90
2016,05,23,09,59,13.90
2016,05,23,10,00,13.90
2016,05,23,10,01,13.90
2016,05,23,10,02,13.80
2016,05,23,10,03,13.80
2016,05,23,10,04,13.80
2016,05,23,10,05,13.70
2016,05,23,10,06,13.70
2016,05,23,10,07,13.60
2016,05,23,10,08,13.60
2016,05,23,10,09,13.60
2016,05,23,10,10,13.60
2016,05,23,10,11,13.60
2016,05,23,10,12,13.50
2016,05,23,10,13,13.50
2016,05,23,10,14,13.40
2016,05,23,10,15,13.40
2016,05,23,10,16,13.40
2016,05,23,10,17,13.40
2016,05,23,10,18,13.40
2016,05,23,10,19,13.40
2016,05,23,10,20,13.40
2016,05,23,10,21,13.40
2016,05,23,10,22,13.40
2016,05,23,10,23,13.40
2016,05,23,10,24,13.40
2016,05,23,10,25,13.40
2016,05,23,10,26,13.40
2016,05,23,10,27,13.50
2016,05,23,10,28,13.50
2016,05,23,10,29,13.40
2016,05,23,10,30,13.40
2016,05,23,10,31,13.40
2016,05,23,10,32,13.40
2016,05,23,10,33,13.40
2016,05,23,10,34,13.40
2016,05,23,10,35,13.40
2016,05,23,10,36,13.40
2016,05,23,10,37,13.40
2016,05,23,10,38,13.40
2016,05,23,10,39,13.30
2016,05,23,10,40,13.30
2016,05,23,10,41,13.30
2016,05,23,10,42,13.30
2016,05,23,10,43,13.30
2016,05,23,10,44,13.30
2016,05,23,10,45,13.30
2016,05,23,10,46,13.30
2016,05,23,10,47,13.30
2016,05,23,10,48,13.30
2016,05,23,10,49,13.30
2016,05,23,10,50,13.30
2016,05,23,10,51,13.30
2016,05,23,10,52,13.30
2016,05,23,10,53,13.30
2016,05,23,10,54,13.30
2016,05,23,10,55,13.20
2016,05,23,10,56,13.20
2016,05,23,10,57,13.20
2016,05,23,10,58,13.20
2016,05,23,10,59,13.10
2016,05,23,11,00,13.10
2016,05,23,11,01,13.00
2016,05,23,11,02,13.00
2016,05,23,11,03,13.00
2016,05,23,11,04,12.90
2016,05,23,11,05,12.90
2016,05,23,11,06,12.90
2016,05,23,11,07,12.80
2016,05,23,11,08,12.80
2016,05,23,11,09,12.80
2016,05,23,11,10,12.80
2016,05,23,11,11,12.70
2016,05,23,11,12,12.70
2016,05,23,11,13,12.70
2016,05,23,11,14,12.70
2016,05,23,11,15,12.70
2016,05,23,11,16,12.70
2016,05,23,11,17,12.70
2016,05,23,11,18,12.70
2016,05,23,11,19,12.80
2016,05,23,11,20,12.80
2016,05,23,11,21,12.80
2016,05,23,11,22,12.80
2016,05,23,11,23,12.80
2016,05,23,11,24,12.80
2016,05,23,11,25,12.80
2016,05,23,11,26,12.80
2016,05,23,11,27,12.90
2016,05,23,11,28,12.90
2016,05,23,11,29,13.00
2016,05,23,11,30,13.10
2016,05,23,11,31,13.10
2016,05,23,11,32,13.20
2016,05,23,11,33,13.20
2016,05,23,11,34,13.20
2016,05,23,11,35,13.20
2016,05,23,11,36,13.20
2016,05,23,11,37,13.30
2016,05,23,11,38,13.30
2016,05,23,11,39,13.30
2016,05,23,11,40,13.40
2016,05,23,11,41,13.50
2016,05,23,11,42,13.50
2016,05,23,11,43,13.60
2016,05,23,11,44,13.70
2016,05,23,11,45,13.70
2016,05,23,11,46,13.80
2016,05,23,11,47,13.80
2016,05,23,11,48,13.90
2016,05,23,11,49,13.90
2016,05,23,11,50,14.00
2016,05,23,11,51,14.10
2016,05,23,11,52,14.10
2016,05,23,11,53,14.10
2016,05,23,11,54,14.10
2016,05,23,11,55,14.20
2016,05,23,11,56,14.30
2016,05,23,11,57,14.30
2016,05,23,11,58,14.40
2016,05,23,11,59,14.40
2016,05,23,12,00,14.40
2016,05,23,12,01,14.40
2016,05,23,12,02,14.40
2016,05,23,12,03,14.40
2016,05,23,12,04,14.40
2016,05,23,12,05,14.50
2016,05,23,12,06,14.60
2016,05,23,12,07,14.70
2016,05,23,12,08,14.80
2016,05,23,12,09,14.90
2016,05,23,12,10,14.90
2016,05,23,12,11,14.90
2016,05,23,12,12,14.80
2016,05,23,12,13,14.70
2016,05,23,12,14,14.60
2016,05,23,12,15,14.50
2016,05,23,12,16,14.40
2016,05,23,12,17,14.40
2016,05,23,12,18,14.50
2016,05,23,12,19,14.50
2016,05,23,12,20,14.60
2016,05,23,12,21,14.60
2016,05,23,12,22,14.60
2016,05,23,12,23,14.70
2016,05,23,12,24,14.70
2016,05,23,12,25,14.70
2016,05,23,12,26,14.70
2016,05,23,12,27,14.60
2016,05,23,12,28,14.40
2016,05,23,12,29,14.30
2016,05,23,12,30,14.20
2016,05,23,12,31,14.20
2016,05,23,12,32,14.20
2016,05,23,12,33,14.20
2016,05,23,12,34,14.20
2016,05,23,12,35,14.30
2016,05,23,12,36,14.40
2016,05,23,12,37,14.40
2016,05,23,12,38,14.50
2016,05,23,12,39,14.50
2016,05,23,12,40,14.50
2016,05,23,12,41,14.50
2016,05,23,12,42,14.50
2016,05,23,12,43,14.50
2016,05,23,12,44,14.40
2016,05,23,12,45,14.20
2016,05,23,12,46,14.20
2016,05,23,12,47,14.10
2016,05,23,12,48,14.10
2016,05,23,12,49,14.10
2016,05,23,12,50,14.00
2016,05,23,12,51,13.90
2016,05,23,12,52,13.80
2016,05,23,12,53,13.80
2016,05,23,12,54,13.80
2016,05,23,12,55,13.90
2016,05,23,12,56,13.80
2016,05,23,12,57,13.80
2016,05,23,12,58,13.70
2016,05,23,12,59,13.70
2016,05,23,13,00,13.60
2016,05,23,13,01,13.60
2016,05,23,13,02,13.60
2016,05,23,13,03,13.70
2016,05,23,13,04,13.70
2016,05,23,13,05,13.70
2016,05,23,13,06,13.70
2016,05,23,13,07,13.60
2016,05,23,13,08,13.60
2016,05,23,13,09,13.70
2016,05,23,13,10,13.70
2016,05,23,13,11,13.80
2016,05,23,13,12,13.80
2016,05,23,13,13,13.80
2016,05,23,13,14,13.70
2016,05,23,13,15,13.70
2016,05,23,13,16,13.60
2016,05,23,13,17,13.60
2016,05,23,13,18,13.60
2016,05,23,13,19,13.60
2016,05,23,13,20,13.60
2016,05,23,13,21,13.60
2016,05,23,13,22,13.60
2016,05,23,13,23,13.60
2016,05,23,13,24,13.60
2016,05,23,13,25,13.60
2016,05,23,13,26,13.60
2016,05,23,13,27,13.50
2016,05,23,13,28,13.50
2016,05,23,13,29,13.40
2016,05,23,13,30,13.40
2016,05,23,13,31,13.40
2016,05,23,13,32,13.40
2016,05,23,13,33,13.50
2016,05,23,13,34,13.50
2016,05,23,13,35,13.50
2016,05,23,13,36,13.60
2016,05,23,13,37,13.70
2016,05,23,13,38,13.70
2016,05,23,13,39,13.80
2016,05,23,13,40,13.80
2016,05,23,13,41,13.80
2016,05,23,13,42,13.80
2016,05,23,13,43,13.80
2016,05,23,13,44,13.80
2016,05,23,13,45,13.80
2016,05,23,13,46,13.80
2016,05,23,13,47,13.90
2016,05,23,13,48,13.90
2016,05,23,13,49,13.90
2016,05,23,13,50,14.00
2016,05,23,13,51,14.10
2016,05,23,13,52,14.20
2016,05,23,13,53,14.20
2016,05,23,13,54,14.30
2016,05,23,13,55,14.30
2016,05,23,13,56,14.30
2016,05,23,13,57,14.40
2016,05,23,13,58,14.40
2016,05,23,13,59,14.30
2016,05,23,14,00,14.30
2016,05,23,14,01,14.30
2016,05,23,14,02,14.20
2016,05,23,14,03,14.20
2016,05,23,14,04,14.20
2016,05,23,14,05,14.20
2016,05,23,14,06,14.20
2016,05,23,14,07,14.20
2016,05,23,14,08,14.30
2016,05,23,14,09,14.30
2016,05,23,14,10,14.30
2016,05,23,14,11,14.40
2016,05,23,14,12,14.40
2016,05,23,14,13,14.40
2016,05,23,14,14,14.50
2016,05,23,14,15,14.60
2016,05,23,14,16,14.70
2016,05,23,14,17,14.80
2016,05,23,14,18,14.90
2016,05,23,14,19,15.00
2016,05,23,14,20,15.00
2016,05,23,14,21,15.00
2016,05,23,14,22,15.10
2016,05,23,14,23,15.10
2016,05,23,14,24,15.00
2016,05,23,14,25,14.90
2016,05,23,14,26,14.80
2016,05,23,14,27,14.70
2016,05,23,14,28,14.60
2016,05,23,14,29,14.60
2016,05,23,14,30,14.50
2016,05,23,14,31,14.40
2016,05,23,14,32,14.30
2016,05,23,14,33,14.30
2016,05,23,14,34,14.30
2016,05,23,14,35,14.30
2016,05,23,14,36,14.20
2016,05,23,14,37,14.20
2016,05,23,14,38,14.20
2016,05,23,14,39,14.20
2016,05,23,14,40,14.20
2016,05,23,14,41,14.20
2016,05,23,14,42,14.20
2016,05,23,14,43,14.30
2016,05,23,14,44,14.40
2016,05,23,14,45,14.50
2016,05,23,14,46,14.50
2016,05,23,14,47,14.60
2016,05,23,14,48,14.60
2016,05,23,14,49,14.60
2016,05,23,14,50,14.60
2016,05,23,14,51,14.70
2016,05,23,14,52,14.70
2016,05,23,14,53,14.70
2016,05,23,14,54,14.70
2016,05,23,14,55,14.60
2016,05,23,14,56,14.60
2016,05,23,14,57,14.60
2016,05,23,14,58,14.60
2016,05,23,14,59,14.70
2016,05,23,15,00,14.70
2016,05,23,15,01,14.70
2016,05,23,15,02,14.70
2016,05,23,15,03,14.70
2016,05,23,15,04,14.70
2016,05,23,15,05,14.70
2016,05,23,15,06,14.70
2016,05,23,15,07,14.80
2016,05,23,15,08,14.80
2016,05,23,15,09,14.80
2016,05,23,15,10,14.80
2016,05,23,15,11,14.90
2016,05,23,15,12,15.00
2016,05,23,15,13,15.10
2016,05,23,15,14,15.20
2016,05,23,15,15,15.20
2016,05,23,15,16,15.30
2016,05,23,15,17,15.30
2016,05,23,15,18,15.30
2016,05,23,15,19,15.30
2016,05,23,15,20,15.30
2016,05,23,15,21,15.30
2016,05,23,15,22,15.30
2016,05,23,15,23,15.30
2016,05,23,15,24,15.20
2016,05,23,15,25,15.10
2016,05,23,15,26,15.00
2016,05,23,15,27,14.90
2016,05,23,15,28,14.90
2016,05,23,15,29,14.90
2016,05,23,15,30,15.00
2016,05,23,15,31,15.00
2016,05,23,15,32,15.10
2016,05,23,15,33,15.10
2016,05,23,15,34,15.10
2016,05,23,15,35,15.10
2016,05,23,15,36,15.00
2016,05,23,15,37,15.00
2016,05,23,15,38,15.10
2016,05,23,15,39,15.00
2016,05,23,15,40,15.00
2016,05,23,15,41,14.90
2016,05,23,15,42,14.90
2016,05,23,15,43,14.90
2016,05,23,15,44,14.90
2016,05,23,15,45,14.90
2016,05,23,15,46,14.90
2016,05,23,15,47,15.00
2016,05,23,15,48,15.00
2016,05,23,15,49,15.20
2016,05,23,15,50,15.30
2016,05,23,15,51,15.40
2016,05,23,15,52,15.40
2016,05,23,15,53,15.50
2016,05,23,15,54,15.50
2016,05,23,15,55,15.50
2016,05,23,15,56,15.50
2016,05,23,15,57,15.40
2016,05,23,15,58,15.40
2016,05,23,15,59,15.40
2016,05,23,16,00,15.40
2016,05,23,16,01,15.30
2016,05,23,16,02,15.30
2016,05,23,16,03,15.10
2016,05,23,16,04,15.00
2016,05,23,16,05,14.90
2016,05,23,16,06,14.90
2016,05,23,16,07,14.90
2016,05,23,16,08,14.80
2016,05,23,16,09,14.80
2016,05,23,16,10,14.80
2016,05,23,16,11,14.80
2016,05,23,16,12,14.80
2016,05,23,16,13,14.80
2016,05,23,16,14,14.70
2016,05,23,16,15,14.70
2016,05,23,16,16,14.70
2016,05,23,16,17,14.70
2016,05,23,16,18,14.70
2016,05,23,16,19,14.70
2016,05,23,16,20,14.70
2016,05,23,16,21,14.70
2016,05,23,16,22,14.70
2016,05,23,16,23,14.80
2016,05,23,16,24,14.80
2016,05,23,16,25,14.80
2016,05,23,16,26,14.80
2016,05,23,16,27,14.90
2016,05,23,16,28,14.90
2016,05,23,16,29,14.90
2016,05,23,16,30,15.00
2016,05,23,16,31,15.00
2016,05,23,16,32,15.10
2016,05,23,16,33,15.10
2016,05,23,16,34,15.00
2016,05,23,16,35,15.00
2016,05,23,16,36,14.90
2016,05,23,16,37,14.80
2016,05,23,16,38,14.80
2016,05,23,16,39,14.80
2016,05,23,16,40,14.80
2016,05,23,16,41,14.80
2016,05,23,16,42,14.80
2016,05,23,16,43,14.90
2016,05,23,16,44,14.90
2016,05,23,16,45,14.90
2016,05,23,16,46,14.80
2016,05,23,16,47,14.80
2016,05,23,16,48,14.80
2016,05,23,16,49,14.80
2016,05,23,16,50,14.80
2016,05,23,16,51,14.70
2016,05,23,16,52,14.60
2016,05,23,16,53,14.50
2016,05,23,16,54,14.40
2016,05,23,16,55,14.40
2016,05,23,16,56,14.40
2016,05,23,16,57,14.30
2016,05,23,16,58,14.30
2016,05,23,16,59,14.40
2016,05,23,17,00,14.40
2016,05,23,17,01,14.30
2016,05,23,17,02,14.30
2016,05,23,17,03,14.30
2016,05,23,17,04,14.30
2016,05,23,17,05,14.20
2016,05,23,17,06,14.30
2016,05,23,17,07,14.30
2016,05,23,17,08,14.30
2016,05,23,17,09,14.30
2016,05,23,17,10,14.30
2016,05,23,17,11,14.40
2016,05,23,17,12,14.40
2016,05,23,17,13,14.40
2016,05,23,17,14,14.40
2016,05,23,17,15,14.30
2016,05,23,17,16,14.30
2016,05,23,17,17,14.30
2016,05,23,17,18,14.30
2016,05,23,17,19,14.30